{"data":{"norad_id":55488,"epoch":"2026-09-20T20:34:29.793792Z","epoch_age_seconds":69237,"freshness":"FRESH","line1":"1 55488U 23015AR  26263.85728928 -.00000419  00000+0 -56980-5 0  9997","line2":"2 55488  43.0039 317.5220 0001107 289.8198  70.2534 15.27576688200441","mean_motion":15.27576688,"eccentricity":0.0001107,"inclination_deg":43.0039,"raan_deg":317.522,"arg_perigee_deg":289.8198,"mean_anomaly_deg":70.2534,"bstar":-5.698e-6,"rev_number":20044,"period_min":94.266953097153,"perigee_km":482.29947897838,"apogee_km":483.81854777574,"semimajor_km":6861.1960133771,"source":"CELESTRAK","updated_at":"2026-09-21T09:00:33.258069Z"}}